Paducah, KY

7:45 PM CDT on April 25, 2017 (GMT -0500)
Barkley Regional

Weather History for KPAH - August, 2014

Change the Weather History Date:

Sunday, August 24, 2014

  Actual Average Record
Temperature  
Mean Temperature 86 °F 77 °F  
Max Temperature 97 °F 89 °F 101 °F (2007)
Min Temperature 74 °F 65 °F 54 °F (1952)
Degree Days  
Heating Degree Days 0 0  
Month to date heating degree days 0 0  
Since 1 June heating degree days 0 4  
Since 1 July heating degree days 0 0  
Cooling Degree Days 21 12  
Month to date cooling degree days 348 308  
Year to date cooling degree days 1347 1231  
Since 1 June cooling degree days 1069 1059  
Growing Degree Days 35 (Base 50)    
Moisture  
Dew Point 75 °F    
Average Humidity 73    
Maximum Humidity 94    
Minimum Humidity 51    
Precipitation  
Precipitation 0.00 in 0.08 in 2.27 in (1982)
Month to date precipitation 3.13 2.16  
Year to date precipitation 32.05 31.88  
Snow  
Snow 0.00 in 0.00 in 0.00 in (2002)
Month to date snowfall 0.0 0.0  
Since 1 June snowfall 0.0 0.0  
Since 1 July snowfall 0.0 0.0  
Snow Depth 0.00 in    
Sea Level Pressure  
Sea Level Pressure 29.94 in    
Wind  
Wind Speed 4 mph (SE)    
Max Wind Speed 10 mph    
Max Gust Speed 16 mph    
Visibility 9 miles    
Events      
T = Trace of Precipitation, MM = Missing Value Source: NWS Daily Summary

Daily Weather History Graph

Daily Weather History Graph

Search for Another Location

Airport or City:

Trip Planner

Search our weather history database for the weather conditions in past years. The results will help you decide how hot, cold, wet, or windy it might be!

Date:

Astronomy

Aug. 24, 2014 Rise Set
Actual Time 6:19 AM CDT 7:34 PM CDT
Civil Twilight 5:52 AM CDT 8:01 PM CDT
Nautical Twilight 5:19 AM CDT 8:34 PM CDT
Astronomical Twilight 4:46 AM CDT 9:07 PM CDT
Moon 5:29 AM CDT (8/24) 6:53 PM CDT (8/24)
Length of Visible Light 14h 09m
Length of Day
13h 15m
Waning Crescent, 1% of the Moon is Illuminated
Aug 24
Waning Crescent
Aug 25
New
Sep 2
First Quarter
Sep 8
Full
Sep 15
Last Quarter

Hourly Weather History & Observations

Time (CDT) Temp. Heat Index Dew Point Humidity Pressure Visibility Wind Dir Wind Speed Gust Speed Precip Events Conditions
12:53 AM 77.0 °F - 72.0 °F 84% 29.94 in 9.0 mi South 6.9 mph - 0.03 in   Clear
1:53 AM 75.9 °F - 73.0 °F 91% 29.94 in 8.0 mi ENE 5.8 mph - N/A   Clear
2:53 AM 75.9 °F - 73.0 °F 91% 29.94 in 6.0 mi SE 5.8 mph - N/A   Partly Cloudy
3:53 AM 75.9 °F - 72.0 °F 87% 29.93 in 8.0 mi South 4.6 mph - N/A   Clear
4:53 AM 75.0 °F - 72.0 °F 90% 29.94 in 8.0 mi Calm Calm - N/A   Clear
5:53 AM 75.0 °F - 71.1 °F 87% 29.94 in 9.0 mi Calm Calm - N/A   Clear
6:53 AM 73.9 °F - 71.1 °F 91% 29.96 in 6.0 mi WSW 4.6 mph - N/A   Clear
7:53 AM 78.1 °F - 72.0 °F 81% 29.96 in 10.0 mi WSW 5.8 mph - N/A   Clear
8:53 AM 82.0 °F 87.4 °F 73.0 °F 74% 29.96 in 10.0 mi Calm Calm - N/A   Clear
9:53 AM 86.0 °F 93.8 °F 73.9 °F 67% 29.96 in 10.0 mi West 6.9 mph - N/A   Clear
10:53 AM 89.1 °F 99.1 °F 75.0 °F 63% 29.96 in 10.0 mi WNW 6.9 mph - N/A   Clear
11:53 AM 91.9 °F 103.9 °F 75.9 °F 59% 29.96 in 10.0 mi East 3.5 mph - N/A   Clear
12:53 PM 91.9 °F 103.9 °F 75.9 °F 59% 29.95 in 10.0 mi Calm Calm - N/A   Clear
1:53 PM 93.9 °F 108.4 °F 77.0 °F 58% 29.94 in 10.0 mi ESE 4.6 mph - N/A   Clear
2:53 PM 96.1 °F 109.4 °F 75.9 °F 52% 29.92 in 10.0 mi East 8.1 mph - N/A   Clear
3:53 PM 97.0 °F 109.3 °F 75.0 °F 49% 29.90 in 10.0 mi SE 4.6 mph - N/A   Clear
4:53 PM 93.9 °F 108.4 °F 77.0 °F 58% 29.90 in 10.0 mi ESE 8.1 mph - N/A   Clear
5:53 PM 93.9 °F 109.9 °F 78.1 °F 60% 29.91 in 10.0 mi ESE 5.8 mph - N/A   Clear
6:53 PM 91.0 °F 106.2 °F 78.1 °F 66% 29.91 in 10.0 mi ESE 9.2 mph - N/A   Clear
7:53 PM 84.9 °F 95.3 °F 77.0 °F 77% 29.93 in 10.0 mi SE 4.6 mph - N/A   Clear
8:53 PM 84.2 °F 92.3 °F 75.2 °F 74% 29.96 in 10.0 mi SSE 4.6 mph - N/A   Clear
9:53 PM 82.0 °F 89.4 °F 75.9 °F 82% 29.95 in 10.0 mi SE 4.6 mph - N/A   Clear
10:53 PM 81.0 °F 87.3 °F 75.9 °F 85% 29.96 in 9.0 mi ESE 3.5 mph - N/A   Clear